SL-16 DEB

Satellite information

Favourite Embed

Satellite Type and Status

DEBRISIN ORBIT

Key statistics

Satellite SL-16 DEB at a glance.

Uptime

11821

Days in orbit

Revolutions

≈ 14.1

Per day

Orbit

LEO

Low Earth Orbit

Inclination

71.1

Latest

Satellite identification and parameters

Extended collection of information and parameters for SL-16 DEB.

Object identification

Identified? True

Debris? True

Object name: SL-16 DEB

International designator: 1992-093CJ

Object number (NORAD): 22393

Object ID (CCSDS): 22393

Country: COMMONWEALTH OF INDEPENDENT STATES (CIS)

Current information (Y/N): Y

RCS size: SMALL

Orbital parameters

Period: 102.221 minutes

Inclination: 71.122 deg

SMA: 7241.911 km

Apoapsis: 948.773 km

Periapsis: 778.779 km

RAAN: 338.5168 deg

Eccentricy: 0.0117368

Argument of periapsis: 271.3229 deg

Mean anomaly: 152.2924 deg

Mean motion: 14.08714409 rev/day

Mean motion (dot): 0.0000149 rev/day2

B* drag term: 0.00083661 1/REarth

Two-line elements (TLE)

Creation date: May 7, 2025, 3:14 a.m.

Reference frame: TEME

Reference center: EARTH

Epoch: May 6, 2025, 3:09 p.m. UTC

TLE line 0: 0 SL-16 DEB

TLE line 1: 1 22393U 92093CJ 25126.63131015 .00001490 00000-0 83661-3 0 9999

TLE line 2: 2 22393 71.1220 338.5168 0117368 271.3229 152.2924 14.08714409650835

Live tracking on map

Real-time ground track for satellite SL-16 DEB.

In-orbit conjunctions

A list of the most updated potential collisions computed for object SL-16 DEB.

Target Orbit TCA Probability of collision Miss distance Type
CZ-6A DEB LEO 2025-01-17 21:40:52 0.0001236606 394.0 (m) DEBRIS
CZ-4B R/B SSO 2025-01-03 23:51:50 0.001107569 37.0 (m) ROCKET BODY
METEOR 2-11 LEO 2024-11-27 09:01:21 0.0001864615 553.0 (m) PAYLOAD

Associated space launch

Second generation ELING satellite

SL-16 DEB was lifted into orbit during the mission ‘Zenit-2 | Tselina-2 12’, on board a Zenit-2 space rocket.

The launch took place on Dec. 25, 1992, 5:56 a.m. from 45/1.

For more information about the launch, click the button.

Launch to space Zenit-2 | Tselina-2 12
Zenit-2 | Tselina-2 12

Agency: N/A

Status: Launch Successful

Launch date: Dec. 25, 1992, 5:56 a.m. UTC

Rocket: Zenit-2

Launch pad: 45/1

Location: Baikonur Cosmodrome, Republic of Kazakhstan

...

Latest news about this satellite

There are no fresh news available about this satellite. Check back as we update our databases every day.


Newsletter sign-up

Weekly statistics, charts and insights to help you stay on top of the space industry.